EW4430 Seminole FL US current weather conditions

sailwx.info

Wind from 193

Air temperature 22.2° C
Dewpoint 20.1° C

Last reported at 2020-Feb-26 19:01 UTC.
Time now 2020-Feb-26 19:59 UTC

Location: N 27°52' W 082°49'.
View on Google Maps.

See reports from other nearby stations

  
Tides and Currents Weather Stations Pressure Air Temp Water Temp Dewpoint Dewpoint Depression Visibility Wind Speed Wind Dir Waves Ship Positions
date/time (UTC)wind fromknots sea level pressurealtimeterstation pressurevisibilityair tempwater tempwave heightnotes
2020-Feb-26 19:01 193 22.2
2020-Feb-26 18:45 131 22.2
2020-Feb-26 18:31 177 23.3
2020-Feb-26 18:15 207 23.3
2020-Feb-26 17:46 160 24.4
2020-Feb-26 17:30 198 24.4
2020-Feb-26 17:02 150 24.4
2020-Feb-26 16:45 134 24.4
2020-Feb-26 16:32 194 24.4
2020-Feb-26 16:16 139 0 gusting 4 23.9
2020-Feb-26 15:45 142 23.3
2020-Feb-26 15:32 161 23.3
2020-Feb-26 15:16 165 23.3
2020-Feb-26 14:45 117 23.3
2020-Feb-26 14:30 189 23.3
2020-Feb-26 14:01 155 22.8
2020-Feb-26 13:46 161 21.7
2020-Feb-26 13:31 159 20.6
2020-Feb-26 13:15 133 19.4
2020-Feb-26 12:45 136 19.4
2020-Feb-26 12:16 138 19.4
2020-Feb-26 11:46 134 18.9
2020-Feb-26 11:30 134 18.9
2020-Feb-26 11:15 134 18.9
2020-Feb-26 11:01 134 18.9
2020-Feb-26 10:47 134 18.9
2020-Feb-26 10:31 134 18.9
2020-Feb-26 10:15 134 18.9
2020-Feb-26 09:46 106 18.3
2020-Feb-26 09:31 106 17.8
2020-Feb-26 09:15 106 17.8
2020-Feb-26 08:46 106 17.8
2020-Feb-26 08:30 106 17.8
2020-Feb-26 08:17 106 17.8
2020-Feb-26 08:00 106 17.8
2020-Feb-26 07:46 106 17.8
2020-Feb-26 07:45 106 17.8
2020-Feb-26 07:32 106 17.8
2020-Feb-26 07:15 106 17.8
2020-Feb-26 06:45 106 17.8
2020-Feb-26 06:30 106 17.8
2020-Feb-26 06:16 106 17.8
2020-Feb-26 06:15 106 17.8
2020-Feb-26 06:01 106 17.8
2020-Feb-26 05:47 107 17.8
2020-Feb-26 05:15 106 18.3
2020-Feb-26 04:31 005 18.3
2020-Feb-26 04:16 005 18.3
2020-Feb-26 03:46 005 18.3
2020-Feb-26 03:16 005 18.3
2020-Feb-26 03:15 005 18.3
2020-Feb-26 03:02 005 18.3
2020-Feb-26 02:46 005 18.3
2020-Feb-26 02:30 005 18.3
2020-Feb-26 02:15 005 18.3
2020-Feb-26 02:01 005 18.3
2020-Feb-26 01:45 005 18.3
2020-Feb-26 01:31 005 18.3
2020-Feb-26 01:15 005 18.3
2020-Feb-26 00:46 327 0 gusting 5 18.3
2020-Feb-26 00:30 020 2 gusting 6 18.3
2020-Feb-26 00:15 360 18.3
2020-Feb-26 00:02 345 18.3
2020-Feb-25 23:45 332 1 gusting 6 18.9
2020-Feb-25 23:31 301 0 gusting 6 19.4
2020-Feb-25 23:17 277 21.1
2020-Feb-25 22:47 228 21.7
2020-Feb-25 22:31 208 0 gusting 6 22.2
2020-Feb-25 22:15 198 0 gusting 6 22.2
2020-Feb-25 21:45 163 22.8
2020-Feb-25 21:31 126 22.8
2020-Feb-25 21:15 192 22.8
2020-Feb-25 21:00 161 22.8
2020-Feb-25 20:45 142 23.3
2020-Feb-25 20:16 137 0 gusting 6 23.3
2020-Feb-25 19:46 182 0 gusting 6 23.3
2020-Feb-25 19:30 113 0 gusting 8 23.3
2020-Feb-25 19:15 194 23.3
2020-Feb-25 18:46 184 22.8
2020-Feb-25 18:30 186 23.3
2020-Feb-25 18:15 142 0 gusting 5 23.3
2020-Feb-25 18:02 190 23.9
2020-Feb-25 17:45 180 24.4
2020-Feb-25 17:30 154 24.4
2020-Feb-25 17:17 178 0 gusting 5 23.3
2020-Feb-25 17:00 152 23.3
2020-Feb-25 16:45 285 0 gusting 4 23.3
2020-Feb-25 16:30 153 0 gusting 5 23.3
2020-Feb-25 16:15 171 22.8
2020-Feb-25 16:01 147 22.2
2020-Feb-25 15:45 167 22.2
2020-Feb-25 15:31 192 22.8
2020-Feb-25 15:15 149 22.2
2020-Feb-25 14:45 184 22.2
2020-Feb-25 14:30 169 0 gusting 6 22.2
2020-Feb-25 14:16 169 0 gusting 3 22.2
2020-Feb-25 13:46 130 0 gusting 6 21.7
2020-Feb-25 13:30 140 21.1
2020-Feb-25 13:16 196 21.1
2020-Feb-25 13:01 199 20.6
2020-Feb-25 12:46 206 20.6
2020-Feb-25 12:31 166 0 gusting 5 20.6
2020-Feb-25 12:17 190 20.0
2020-Feb-25 12:01 175 20.0
2020-Feb-25 11:45 153 20.0
2020-Feb-25 11:31 207 20.0
2020-Feb-25 11:18 152 20.0
2020-Feb-25 10:46 146 20.0
2020-Feb-25 10:31 160 20.0
2020-Feb-25 10:15 150 20.0
2020-Feb-25 10:01 159 20.0
2020-Feb-25 09:45 163 20.0
2020-Feb-25 09:32 178 20.0
2020-Feb-25 09:16 180 19.4
2020-Feb-25 08:46 154 19.4
2020-Feb-25 08:30 118 19.4
2020-Feb-25 08:15 196 19.4
2020-Feb-25 08:01 160 19.4
2020-Feb-25 07:46 156 19.4
2020-Feb-25 07:31 157 19.4
2020-Feb-25 07:16 158 19.4
2020-Feb-25 06:45 148 19.4
2020-Feb-25 06:17 138 19.4
2020-Feb-25 06:00 149 20.0
2020-Feb-25 05:45 167 20.0
2020-Feb-25 05:00 179 20.0
2020-Feb-25 04:46 161 20.0
2020-Feb-25 04:31 171 20.0
2020-Feb-25 04:15 165 20.6
2020-Feb-25 03:46 161 20.0
2020-Feb-25 03:30 194 20.6
2020-Feb-25 03:15 159 20.6
2020-Feb-25 03:01 189 20.0
2020-Feb-25 02:47 166 20.0
2020-Feb-25 02:30 167 20.0
2020-Feb-25 02:15 140 20.0
2020-Feb-25 01:45 161 20.0
2020-Feb-25 01:18 171 20.0
2020-Feb-25 01:00 162 20.0
2020-Feb-25 00:45 192 20.0
2020-Feb-25 00:32 158 20.6
2020-Feb-25 00:15 163 20.6
2020-Feb-25 00:01 195 20.6
2020-Feb-24 23:47 164 20.6
2020-Feb-24 23:31 194 20.6
2020-Feb-24 23:15 195 21.1
2020-Feb-24 22:46 157 21.7
2020-Feb-24 22:31 166 21.7
2020-Feb-24 22:15 188 22.2
2020-Feb-24 21:46 143 22.8
2020-Feb-24 21:30 190 22.8
2020-Feb-24 21:18 186 22.8
2020-Feb-24 21:01 200 23.3
2020-Feb-24 20:45 165 22.8
2020-Feb-24 20:32 126 23.3
2020-Feb-24 20:16 146 22.8
2020-Feb-24 20:00 185 22.8
2020-Feb-24 19:46 160 0 gusting 5 22.8
2020-Feb-24 19:30 166 0 gusting 6 22.8
2020-Feb-24 19:15 197 0 gusting 6 23.3
2020-Feb-24 19:01 197 0 gusting 6 23.9